Location: Newark
(43.4306°N, 0.3089°E)
Time: 22:53:06
(UTC+00:00)

Transit 2A Rocket - Pass Details

Date: 31 August 2019
Orbit: 592 x 911 km, 66.7° (Epoch: 16 September)

Event Time Altitude Azimuth Distance (km) Brightness Sun altitude
Rises 00:21:00 0° 339° (NNW) 3,026 8.8 -37.5°
Reaches altitude 10° 00:24:14 10° 1° (N) 2,050 7.9 -37.5°
Enters shadow 00:26:06 15° 24° (NNE) 1,710 7.4 -37.4°
